Location: Brahman Valley
(40.6513°N, 111.8855°W)
Time: 09:10:23
(UTC+00:00)

Tiros 1 despin weight - Pass Details

Date: 13 May 2021
Orbit: 594 x 641 km, 48.2° (Epoch: 22 June)

Event Time Altitude Azimuth Distance (km) Brightness Sun altitude
Rises 07:55:53 0° 297° (WNW) 2,944 ? -30.4°
Reaches altitude 10° 07:58:19 10° 304° (NW) 2,033 ? -30.3°
Enters shadow 08:01:22 34° 333° (NNW) 1,065 ? -30.2°
Maximum altitude 08:02:48 44° 17° (NNE) 887 - -30.2°
Drops below altitude 10° 08:07:16 10° 90° (E) 2,017 - -30.0°
Sets 08:09:40 0° 97° (E) 2,917 - -29.9°
